User: anonymous   Login
Location: Mexico
(19.4000°N, 99.1500°W)
Time: 22:38:51
(UTC-06:00)
Language:

ISS - Orbit

View from above orbital plane
View from above orbital plane
View from above satellite
View from above satellite

Ground track
Ground track

The orbit data is extracted from the following two-line orbital elements,

1 25544U 98067A   19178.79885775  .00016717  00000-0  10270-3 0  9043
2 25544  51.6416 308.6386 0008186  91.9662 268.2427 15.51235711 16891
Epoch (UTC): 27 June 2019 19:10:21
Eccentricity: 0.0008186
inclination: 51.6416°
perigee height: 407 km
apogee height: 418 km
right ascension of ascending node: 308.6386°
argument of perigee: 91.9662°
revolutions per day: 15.51235711
mean anomaly at epoch: 268.2427°
orbit number at epoch: 1689

The dashed part of the orbit path shows where the satellite is in the earth's shadow,  

DLR